| time (UTC) | temp C | wind direction | speed KPH | gust KPH | rain 1hr cm | rain 24hr cm | rain mn cm | humidity % | barometer mb |
| 20260505223457 | 26 | 182 | 3.2 | 6.4 | 0.00 | 0.00 | 0.00 | 38 | 1010.2 |
| 20260505222457 | 27 | 67 | 0.0 | 11.3 | 0.00 | 0.00 | 0.00 | 37 | 1010.2 |
| 20260505221457 | 27 | 240 | 1.6 | 4.8 | 0.00 | 0.00 | 0.00 | 36 | 1010.2 |
| 20260505220557 | 27 | 180 | 4.8 | 9.7 | 0.00 | 0.00 | 0.00 | 35 | 1010.1 |
| 20260505215457 | 27 | 342 | 1.6 | 8.0 | 0.00 | 0.00 | 0.00 | 35 | 1010.1 |
| 20260505214457 | 27 | 5 | 0.0 | 11.3 | 0.00 | 0.00 | 0.00 | 34 | 1010.1 |
| 20260505213457 | 28 | 253 | 4.8 | 6.4 | 0.00 | 0.00 | 0.00 | 32 | 1010.1 |
| 20260505212457 | 28 | 215 | 0.0 | 12.9 | 0.00 | 0.00 | 0.00 | 32 | 1010.1 |
| 20260505211457 | 28 | 298 | 1.6 | 8.0 | 0.00 | 0.00 | 0.00 | 35 | 1010.0 |
| 20260505210457 | 28 | 152 | 1.6 | 11.3 | 0.00 | 0.00 | 0.00 | 34 | 1010.2 |
| 20260505204458 | 28 | 130 | 3.2 | 12.9 | 0.00 | 0.00 | 0.00 | 31 | 1010.1 |
| 20260505203457 | 29 | 207 | 0.0 | 9.7 | 0.00 | 0.00 | 0.00 | 34 | 1010.1 |
| 20260505202457 | 28 | 227 | 6.4 | 6.4 | 0.00 | 0.00 | 0.00 | 33 | 1010.2 |
| 20260505201457 | 28 | 247 | 3.2 | 16.1 | 0.00 | 0.00 | 0.00 | 36 | 1010.4 |
| 20260505200457 | 28 | 212 | 1.6 | 4.8 | 0.00 | 0.00 | 0.00 | 36 | 1010.6 |
| 20260505195457 | 28 | 132 | 3.2 | 11.3 | 0.00 | 0.00 | 0.00 | 33 | 1010.7 |
| 20260505194457 | 28 | 148 | 1.6 | 8.0 | 0.00 | 0.00 | 0.00 | 33 | 1010.8 |
| 20260505193457 | 28 | 163 | 14.5 | 14.5 | 0.00 | 0.00 | 0.00 | 36 | 1011.0 |
| 20260505192527 | 28 | 165 | 4.8 | 6.4 | 0.00 | 0.00 | 0.00 | 39 | 1011.1 |
| 20260505191457 | 28 | 275 | 8.0 | 9.7 | 0.00 | 0.00 | 0.00 | 37 | 1011.3 |
| 20260505190527 | 28 | 157 | 1.6 | 4.8 | 0.00 | 0.00 | 0.00 | 38 | 1011.3 |
| 20260505185457 | 28 | 355 | 3.2 | 6.4 | 0.00 | 0.00 | 0.00 | 37 | 1011.5 |
| 20260505184457 | 28 | 312 | 1.6 | 11.3 | 0.00 | 0.00 | 0.00 | 37 | 1011.6 |
| 20260505183457 | 28 | 310 | 4.8 | 8.0 | 0.00 | 0.00 | 0.00 | 39 | 1011.7 |
| 20260505182457 | 28 | 115 | 11.3 | 12.9 | 0.00 | 0.00 | 0.00 | 39 | 1011.6 |
| 20260505180457 | 27 | 337 | 1.6 | 12.9 | 0.00 | 0.00 | 0.00 | 39 | 1012.0 |
| 20260505174458 | 27 | 296 | 3.2 | 12.9 | 0.00 | 0.00 | 0.00 | 42 | 1012.0 |
| 20260505173458 | 27 | 194 | 3.2 | 6.4 | 0.00 | 0.00 | 0.00 | 41 | 1012.0 |
| 20260505172457 | 27 | 156 | 3.2 | 8.0 | 0.00 | 0.00 | 0.00 | 43 | 1012.1 |
| 20260505171457 | 27 | 74 | 3.2 | 4.8 | 0.00 | 0.00 | 0.00 | 42 | 1012.3 |
| 20260505170458 | 26 | 198 | 3.2 | 4.8 | 0.00 | 0.00 | 0.00 | 43 | 1012.4 |
| 20260505165457 | 26 | 211 | 4.8 | 6.4 | 0.00 | 0.00 | 0.00 | 41 | 1012.6 |
| 20260505164458 | 26 | 117 | 4.8 | 9.7 | 0.00 | 0.00 | 0.00 | 42 | 1012.8 |
| 20260505163458 | 26 | 178 | 0.0 | 4.8 | 0.00 | 0.00 | 0.00 | 46 | 1012.8 |
| 20260505162458 | 26 | 240 | 3.2 | 4.8 | 0.00 | 0.00 | 0.00 | 48 | 1012.8 |
| 20260505161457 | 26 | 278 | 1.6 | 4.8 | 0.00 | 0.00 | 0.00 | 48 | 1012.9 |
| 20260505160458 | 25 | 293 | 1.6 | 6.4 | 0.00 | 0.00 | 0.00 | 50 | 1013.1 |
| 20260505152457 | 24 | 193 | 8.0 | 8.0 | 0.00 | 0.00 | 0.00 | 54 | 1013.1 |
| 20260505151458 | 23 | 230 | 0.0 | 3.2 | 0.00 | 0.00 | 0.00 | 55 | 1013.1 |
| 20260505150458 | 23 | 262 | 0.0 | 8.0 | 0.00 | 0.00 | 0.00 | 54 | 1013.1 |
| 20260505140528 | 21 | 211 | 1.6 | 4.8 | 0.00 | 0.00 | 0.00 | 59 | 1013.1 |
| 20260505124528 | 18 | 225 | 1.6 | 9.7 | 0.00 | 0.00 | 0.00 | 66 | 1013.2 |
| 20260505123458 | 18 | 298 | 4.8 | 9.7 | 0.00 | 0.00 | 0.00 | 66 | 1013.0 |
| 20260505122458 | 18 | 186 | 1.6 | 4.8 | 0.00 | 0.00 | 0.00 | 65 | 1013.1 |
| 20260505121458 | 18 | 324 | 0.0 | 8.0 | 0.00 | 0.00 | 0.00 | 65 | 1013.1 |
| 20260505120458 | 18 | 259 | 0.0 | 6.4 | 0.00 | 0.00 | 0.00 | 66 | 1013.0 |
| 20260505115458 | 18 | 286 | 4.8 | 8.0 | 0.00 | 0.00 | 0.00 | 67 | 1012.9 |
| 20260505114458 | 17 | 257 | 1.6 | 8.0 | 0.00 | 0.00 | 0.00 | 66 | 1012.9 |
| 20260505113458 | 17 | 220 | 1.6 | 4.8 | 0.00 | 0.00 | 0.00 | 68 | 1012.8 |
| 20260505112458 | 17 | 195 | 0.0 | 4.8 | 0.00 | 0.00 | 0.00 | 68 | 1012.7 |
| 20260505111458 | 17 | 251 | 1.6 | 8.0 | 0.00 | 0.00 | 0.00 | 68 | 1012.7 |
| 20260505110528 | 17 | 279 | 3.2 | 4.8 | 0.00 | 0.00 | 0.00 | 69 | 1012.7 |
| 20260505101458 | 17 | 261 | 0.0 | 6.4 | 0.00 | 0.00 | 0.00 | 70 | 1012.4 |
| 20260505100458 | 16 | 246 | 3.2 | 3.2 | 0.00 | 0.00 | 0.00 | 70 | 1012.4 |
| 20260505094458 | 17 | 221 | 0.0 | 3.2 | 0.00 | 0.00 | 0.00 | 69 | 1012.3 |
| 20260505093458 | 17 | 240 | 1.6 | 3.2 | 0.00 | 0.00 | 0.00 | 69 | 1012.3 |
| 20260505092458 | 17 | 199 | 4.8 | 6.4 | 0.00 | 0.00 | 0.00 | 69 | 1012.4 |
| 20260505091458 | 17 | 239 | 1.6 | 4.8 | 0.00 | 0.00 | 0.00 | 69 | 1012.3 |
| 20260505090458 | 17 | 275 | 1.6 | 1.6 | 0.00 | 0.00 | 0.00 | 68 | 1012.1 |
| 20260505085458 | 17 | 194 | 1.6 | 4.8 | 0.00 | 0.00 | 0.00 | 68 | 1012.1 |
| 20260505084528 | 17 | 243 | 1.6 | 9.7 | 0.00 | 0.00 | 0.00 | 68 | 1012.0 |
| 20260505083458 | 17 | 294 | 3.2 | 4.8 | 0.00 | 0.00 | 0.00 | 68 | 1012.1 |
| 20260505082528 | 17 | 166 | 1.6 | 8.0 | 0.00 | 0.00 | 0.00 | 68 | 1012.0 |
| 20260505081458 | 17 | 195 | 1.6 | 12.9 | 0.00 | 0.00 | 0.00 | 67 | 1012.1 |
| 20260505080458 | 17 | 324 | 3.2 | 6.4 | 0.00 | 0.00 | 0.00 | 68 | 1012.1 |
| 20260505075458 | 17 | 130 | 1.6 | 4.8 | 0.00 | 0.00 | 0.00 | 68 | 1012.0 |
| 20260505074458 | 17 | 281 | 0.0 | 6.4 | 0.00 | 0.00 | 0.00 | 68 | 1012.0 |
| 20260505072528 | 17 | 209 | 1.6 | 4.8 | 0.00 | 0.00 | 0.00 | 68 | 1011.8 |
| 20260505071458 | 17 | 236 | 1.6 | 4.8 | 0.00 | 0.00 | 0.00 | 68 | 1011.8 |
| 20260505070458 | 17 | 257 | 1.6 | 3.2 | 0.00 | 0.00 | 0.00 | 68 | 1011.8 |
| 20260505065458 | 17 | 227 | 1.6 | 6.4 | 0.00 | 0.00 | 0.00 | 67 | 1011.8 |
| 20260505064528 | 17 | 207 | 3.2 | 6.4 | 0.00 | 0.00 | 0.00 | 67 | 1011.7 |
| 20260505063458 | 18 | 299 | 0.0 | 8.0 | 0.00 | 0.00 | 0.00 | 67 | 1011.8 |
| 20260505062458 | 18 | 205 | 0.0 | 9.7 | 0.00 | 0.00 | 0.00 | 66 | 1011.7 |
| 20260505061458 | 18 | 232 | 3.2 | 4.8 | 0.00 | 0.00 | 0.00 | 66 | 1011.7 |
| 20260505060458 | 18 | 219 | 9.7 | 9.7 | 0.00 | 0.00 | 0.00 | 66 | 1011.7 |
| 20260505055458 | 18 | 202 | 6.4 | 9.7 | 0.00 | 0.00 | 0.00 | 65 | 1011.7 |
| 20260505054458 | 18 | 169 | 0.0 | 14.5 | 0.00 | 0.00 | 0.00 | 64 | 1011.8 |
| 20260505053458 | 17 | 163 | 0.0 | 3.2 | 0.00 | 0.00 | 0.00 | 64 | 1011.8 |
| 20260505052458 | 17 | 142 | 0.0 | 3.2 | 0.00 | 0.00 | 0.00 | 63 | 1011.8 |
| 20260505051458 | 17 | 242 | 3.2 | 4.8 | 0.00 | 0.00 | 0.00 | 62 | 1011.7 |
| 20260505050458 | 17 | 266 | 0.0 | 3.2 | 0.00 | 0.00 | 0.00 | 62 | 1011.6 |
| 20260505041458 | 17 | 331 | 0.0 | 1.6 | 0.00 | 0.00 | 0.00 | 61 | 1011.6 |
| 20260505040458 | 17 | 343 | 0.0 | 0.0 | 0.00 | 0.00 | 0.00 | 59 | 1011.6 |
| 20260505035458 | 17 | 344 | 0.0 | 0.0 | 0.00 | 0.00 | 0.00 | 60 | 1011.5 |
| 20260505034458 | 17 | 277 | 0.0 | 0.0 | 0.00 | 0.00 | 0.00 | 60 | 1011.5 |
| 20260505032458 | 17 | 283 | 0.0 | 0.0 | 0.00 | 0.00 | 0.00 | 60 | 1011.5 |
| 20260505031458 | 17 | 283 | 0.0 | 0.0 | 0.00 | 0.00 | 0.00 | 60 | 1011.5 |
| 20260505030458 | 17 | 283 | 0.0 | 0.0 | 0.00 | 0.00 | 0.00 | 61 | 1011.5 |
| 20260505025458 | 17 | 283 | 0.0 | 0.0 | 0.00 | 0.00 | 0.00 | 59 | 1011.5 |
| 20260505024528 | 17 | 283 | 0.0 | 0.0 | 0.00 | 0.00 | 0.00 | 60 | 1011.5 |
| 20260505023458 | 17 | 283 | 0.0 | 0.0 | 0.00 | 0.00 | 0.00 | 60 | 1011.5 |
| 20260505022458 | 17 | 283 | 0.0 | 0.0 | 0.00 | 0.00 | 0.00 | 62 | 1011.5 |
| 20260505021458 | 17 | 283 | 0.0 | 0.0 | 0.00 | 0.00 | 0.00 | 61 | 1011.3 |
| 20260505020458 | 17 | 283 | 0.0 | 0.0 | 0.00 | 0.00 | 0.00 | 62 | 1011.4 |
| 20260505015458 | 17 | 283 | 0.0 | 0.0 | 0.00 | 0.00 | 0.00 | 61 | 1011.4 |
| 20260505014458 | 17 | 283 | 0.0 | 0.0 | 0.00 | 0.00 | 0.00 | 62 | 1011.3 |
| 20260505013458 | 17 | 283 | 0.0 | 0.0 | 0.00 | 0.00 | 0.00 | 60 | 1011.3 |
| 20260505012528 | 18 | 283 | 0.0 | 0.0 | 0.00 | 0.00 | 0.00 | 60 | 1011.3 |
| 20260505011458 | 18 | 283 | 0.0 | 0.0 | 0.00 | 0.00 | 0.00 | 58 | 1011.2 |
| 20260505010458 | 18 | 283 | 0.0 | 0.0 | 0.00 | 0.00 | 0.00 | 56 | 1011.2 |
| 20260505005458 | 19 | 283 | 0.0 | 1.6 | 0.00 | 0.00 | 0.00 | 54 | 1011.0 |
| 20260505004458 | 18 | 285 | 0.0 | 0.0 | 0.00 | 0.00 | 0.00 | 54 | 1010.9 |
| 20260505003458 | 18 | 285 | 0.0 | 0.0 | 0.00 | 0.00 | 0.00 | 52 | 1011.0 |
| 20260505002558 | 19 | 285 | 0.0 | 0.0 | 0.00 | 0.00 | 0.00 | 50 | 1011.0 |
| 20260505001458 | 20 | 285 | 0.0 | 0.0 | 0.00 | 0.00 | 0.00 | 48 | 1011.0 |
| 20260505000528 | 20 | 285 | 0.0 | 0.0 | 0.00 | 0.00 | 0.00 | 47 | 1010.9 |
| 20260504235458 | 21 | 285 | 0.0 | 0.0 | 0.00 | 0.00 | 0.00 | 44 | 1010.7 |
| 20260504234459 | 21 | 285 | 0.0 | 0.0 | 0.00 | 0.00 | 0.00 | 43 | 1010.7 |
| 20260504232528 | 22 | 285 | 0.0 | 0.0 | 0.00 | 0.00 | 0.00 | 40 | 1010.7 |
| 20260504231458 | 22 | 76 | 0.0 | 0.0 | 0.00 | 0.00 | 0.00 | 38 | 1010.6 |
| 20260504230529 | 23 | 275 | 1.6 | 3.2 | 0.00 | 0.00 | 0.00 | 37 | 1010.6 |
| 20260504225459 | 23 | 267 | 0.0 | 3.2 | 0.00 | 0.00 | 0.00 | 37 | 1010.6 |
| 20260504224458 | 23 | 218 | 1.6 | 4.8 | 0.00 | 0.00 | 0.00 | 35 | 1010.6 |